[[{"header":{"parameterUnit":"m.s-1","parameterCategory":1,"la1":30.2991,"la2":30.254,"lo1":-89.0895,"lo2":-89.0444,"dy":0.0017,"dx":0.0017,"nx":28,"ny":28,"refTime":"2024-08-10T15:00:00:Z","depth":0,"parameterNumber":2,"parameterNumberName":"U-component_of_WINDS"},"data":[0,0,0,0,0,0,0,0,0,0,0,0,0,0,0,0,0,0,0,0,0,0,0,0,0,0,0,0,0,0,0,0,0,0,0,0,0,0,0,0,0,0,0,0,0,0,0,0,0,0,0,0,0,0,0,0,0,0,-2.307,-2.3071,0,-2.3115,-2.3115,-2.3116,-2.303,-2.3028,-2.3025,-2.3022,-2.3068,-2.3071,-2.3075,0,0,0,0,0,0,0,0,0,0,0,0,0,-2.291,-2.2914,-2.307,-2.3071,-2.3071,-2.3115,-2.3115,-2.3116,-2.3031,-2.3027,-2.3024,-2.3021,-2.3067,-2.3071,-2.3076,0,0,0,0,0,0,0,0,0,0,0,0,0,-2.297,-2.2915,-2.307,-2.3034,-2.3031,-2.3115,-2.3115,-2.3116,-2.3032,-2.3027,-2.3023,-2.3019,-2.3065,-2.3071,-2.3076,-2.3197,0,0,-2.3094,-2.3096,0,0,0,0,0,0,0,0,-2.2967,-2.2976,-2.3039,-2.3037,-2.3034,-2.3063,-2.3076,-2.3143,-2.3033,-2.3032,-2.3022,-2.3017,-2.307,-2.3075,-2.3092,-2.3199,-2.3201,-2.3094,-2.3098,-2.31,-2.3102,0,0,0,0,0,0,0,-2.2963,-2.2974,-2.3088,-2.304,-2.3037,-2.3015,-2.3019,-2.3088,-2.3074,-2.3031,-2.3025,-2.3032,-2.3067,-2.3087,-2.3093,-2.3201,-2.3094,-2.3099,-2.3103,-2.3105,-2.3409,-2.3413,0,0,0,0,0,0,-2.2963,-2.2971,-2.3086,-2.3089,-2.2989,-2.3022,-2.3026,-2.3058,-2.3073,-2.3071,-2.3035,-2.3028,-2.3079,-2.3086,-2.3094,-2.3237,-2.31,-2.3106,-2.3109,-2.3404,-2.341,-2.3415,0,0,0,0,0,0,-2.296,-2.2974,-2.3084,-2.3028,-2.3041,-2.3029,-2.3065,-2.3061,-2.308,-2.3076,-2.3073,-2.3058,-2.3076,-2.3086,-2.3172,-2.3237,-2.3108,-2.3114,-2.3399,-2.3406,-2.3412,-2.3522,0,0,0,0,0,0,-2.2956,-2.2974,-2.302,-2.303,-2.3044,-2.3162,-2.3069,-2.3065,-2.3091,-2.3081,-2.3096,-2.3095,-2.3074,-2.3164,-2.3178,-2.3243,-2.3118,-2.3393,-2.3402,-2.341,-2.3513,-2.3532,-2.3549,0,0,0,0,0,-2.295,-2.3049,-2.3022,-2.3037,-2.3101,-2.3166,-2.3174,-2.3148,-2.3096,-2.3142,-2.3139,-2.3094,-2.3227,-2.3173,-2.3188,-2.3256,-2.3389,-2.3399,-2.3409,-2.3505,-2.3528,-2.3548,0,0,0,0,0,0,-2.3047,-2.305,-2.302,-2.3125,-2.3146,-2.3152,-2.3209,-2.3173,-2.321,-2.3199,-2.3164,-2.3169,-2.3262,-2.3267,-2.3207,-2.3373,-2.3299,-2.3313,-2.3367,-2.3389,-2.3407,-2.3404,-2.3123,0,0,0,0,0,-2.308,-2.3133,-2.3132,-2.3225,-2.3237,-2.3221,-2.3249,-2.3226,-2.3247,-2.3255,-2.3258,-2.3279,-2.3326,-2.3357,-2.3399,-2.3512,-2.3515,-2.3566,-2.3584,-2.3599,-2.3612,-2.3672,-2.3695,-2.3449,-2.3448,-2.3448,0,0,-2.315,-2.3158,-2.3193,-2.3244,-2.3258,-2.3313,-2.3229,-2.3291,-2.3332,-2.3264,-2.3346,-2.3349,-2.337,-2.347,-2.3515,-2.3478,-2.368,-2.3612,-2.3624,-2.3629,-2.3685,-2.3709,-2.373,-2.3456,-2.3454,-2.3453,0,0,-2.3306,-2.3317,-2.3395,-2.341,-2.3432,-2.3421,-2.344,-2.3451,-2.345,-2.3531,-2.3482,-2.3529,-2.361,-2.3627,-2.3647,-2.3808,-2.3768,-2.3822,-2.3917,-2.3976,-2.3995,-2.4013,-2.4071,-2.4093,-2.3835,-2.3835,-2.3835,0,-2.339,-2.3472,-2.344,-2.3506,-2.353,-2.347,-2.355,-2.3566,-2.36,-2.3618,-2.3576,-2.3676,-2.3686,-2.3789,-2.3829,-2.3846,-2.3867,-2.3821,-2.3995,-2.4012,-2.4028,-2.4083,-2.4105,-2.3841,-2.3841,-2.384,-2.3839,0,-2.3575,-2.3632,-2.3693,-2.3728,-2.3758,-2.383,-2.381,-2.3844,-2.3818,-2.3812,-2.3895,-2.3905,-2.3948,-2.3971,-2.3946,-2.4071,-2.4048,-2.4001,-2.3926,-2.4058,-2.411,-2.4131,-2.3851,-2.3848,-2.3847,-2.3845,0,0,-2.3795,-2.381,-2.3833,-2.3849,-2.3867,-2.3911,-2.398,-2.4023,-2.4053,-2.4078,-2.4136,-2.4205,-2.4162,-2.4184,-2.416,-2.4212,-2.4341,-2.4159,-2.4159,-2.4194,-2.448,-2.4516,-2.4542,-2.4313,-2.4317,-2.432,-2.4478,0,-2.395,-2.407,-2.4043,-2.4161,-2.4214,-2.4157,-2.4218,-2.4236,-2.4231,-2.4274,-2.4268,-2.4319,-2.4257,-2.427,-2.4318,-2.4315,-2.4398,-2.4303,-2.4368,-2.437,-2.4366,-2.4568,-2.4607,-2.4756,-2.4498,-2.4502,-2.4504,0,-2.4149,-2.4182,-2.4306,-2.4316,-2.4337,-2.4392,-2.4428,-2.447,-2.4489,-2.4482,-2.4506,-2.4473,-2.4541,-2.4464,-2.4558,-2.4494,-2.4518,-2.452,-2.4525,-2.4532,-2.4447,-2.4583,-2.4803,-2.4826,-2.4535,-2.4533,-2.4531,0,-2.4299,-2.4374,-2.4458,-2.4472,-2.4486,-2.4526,-2.4533,-2.4548,-2.4575,-2.4606,-2.4624,-2.4663,-2.4685,-2.4716,-2.4693,-2.4639,-2.4791,-2.4712,-2.4788,-2.4789,-2.4824,-2.4823,-2.5054,-2.4837,-2.4836,-2.4836,-2.4836,0,-2.4477,-2.4556,-2.4526,-2.4578,-2.4663,-2.4631,-2.4716,-2.4717,-2.473,-2.4781,-2.4733,-2.4782,-2.4748,-2.4794,-2.4776,-2.4857,-2.4867,-2.4863,-2.4858,-2.4869,-2.487,-2.4886,-2.4876,-2.4842,-2.4841,-2.4839,-2.4838,0,-2.4661,-2.4644,-2.4732,-2.4737,-2.474,-2.4803,-2.4807,-2.4855,-2.4846,-2.4911,-2.4924,-2.491,-2.4961,-2.4941,-2.4995,-2.4983,-2.5087,-2.5067,-2.5082,-2.5077,-2.5155,-2.5149,-2.5406,-2.5439,-2.5199,-2.5201,-2.5203,0,-2.4777,-2.4836,-2.4847,-2.4878,-2.4889,-2.4939,-2.4966,-2.4936,-2.4966,-2.4992,-2.5037,-2.5083,-2.512,-2.5204,-2.5199,-2.524,-2.5222,-2.5309,-2.5228,-2.5237,-2.5225,-2.5223,-2.5229,-2.5326,-2.5329,-2.5331,-2.5333,0,-2.4985,-2.4974,-2.5015,-2.5054,-2.5088,-2.5117,-2.5142,-2.517,-2.514,-2.5177,-2.5229,-2.5257,-2.5312,-2.5359,-2.5396,-2.5403,-2.5364,-2.5358,-2.5378,-2.5391,-2.5398,-2.5397,-2.5128,-2.5353,-2.5351,-2.535,-2.5349,-2.5348,-2.514,-2.519,-2.5206,-2.5253,-2.5269,-2.5293,-2.5338,-2.5334,-2.5377,-2.542,-2.5399,-2.5459,-2.5476,-2.5521,-2.5533,-2.5579,-2.5545,-2.5574,-2.5582,-2.559,-2.5601,-2.5388,-2.5586,-2.5585,-2.5584,-2.5584,-2.5583,0,-2.5347,-2.5354,-2.5398,-2.5435,-2.5472,-2.5431,-2.5456,-2.549,-2.5544,-2.5563,-2.5599,-2.5659,-2.5704,-2.5702,-2.5743,-2.5781,-2.5765,-2.5794,-2.5792,-2.5794,-2.5628,-2.5607,-2.5807,-2.5806,-2.5806,-2.5806,-2.5806,-2.5806,-2.546,-2.5542,-2.5532,-2.5622,-2.5628,-2.5687,-2.5705,-2.5727,-2.5741,-2.581,-2.5848,-2.5846,-2.5856,-2.5898,-2.5938,-2.5936,-2.5954,-2.599,-2.5982,-2.5828,-2.5806,-2.5785,-2.5765,-2.5994,-2.5994,-2.6144,-2.6146,-2.6147]},{"header":{"parameterUnit":"m.s-1","parameterCategory":1,"la1":30.2991,"la2":30.254,"lo1":-89.0895,"lo2":-89.0444,"dy":0.0017,"dx":0.0017,"nx":28,"ny":28,"refTime":"2024-08-10T15:00:00:Z","depth":0,"parameterNumber":3,"parameterNumberName":"V-component_of_WINDS"},"data":[0,0,0,0,0,0,0,0,0,0,0,0,0,0,0,0,0,0,0,0,0,0,0,0,0,0,0,0,0,0,0,0,0,0,0,0,0,0,0,0,0,0,0,0,0,0,0,0,0,0,0,0,0,0,0,0,0,0,-3.5808,-3.5808,0,-3.5857,-3.5857,-3.5858,-3.5809,-3.5807,-3.5805,-3.5803,-3.585,-3.5853,-3.5856,0,0,0,0,0,0,0,0,0,0,0,0,0,-3.5668,-3.5671,-3.5808,-3.5808,-3.5809,-3.5857,-3.5857,-3.5858,-3.5809,-3.5807,-3.5805,-3.5802,-3.5849,-3.5852,-3.5856,0,0,0,0,0,0,0,0,0,0,0,0,0,-3.5724,-3.5672,-3.5808,-3.5791,-3.579,-3.5856,-3.5857,-3.5858,-3.581,-3.5807,-3.5804,-3.5801,-3.5848,-3.5852,-3.5856,-3.5942,0,0,-3.587,-3.5872,0,0,0,0,0,0,0,0,-3.5721,-3.5729,-3.5792,-3.5792,-3.5791,-3.5824,-3.5825,-3.5886,-3.581,-3.5802,-3.5803,-3.58,-3.5843,-3.5848,-3.5863,-3.5944,-3.5946,-3.5871,-3.5873,-3.5875,-3.5877,0,0,0,0,0,0,0,-3.5717,-3.5727,-3.5827,-3.5793,-3.5792,-3.5779,-3.5784,-3.5836,-3.5838,-3.5802,-3.5799,-3.5806,-3.5842,-3.5859,-3.5864,-3.5947,-3.587,-3.5875,-3.5877,-3.5879,-3.6098,-3.6101,0,0,0,0,0,0,-3.5715,-3.5724,-3.5825,-3.5828,-3.5748,-3.5784,-3.5789,-3.5816,-3.5837,-3.5838,-3.5808,-3.5803,-3.5853,-3.5859,-3.5865,-3.5966,-3.5875,-3.588,-3.5882,-3.6095,-3.6098,-3.6102,0,0,0,0,0,0,-3.5713,-3.5725,-3.5823,-3.5775,-3.5787,-3.5789,-3.582,-3.5819,-3.5835,-3.5842,-3.5841,-3.5825,-3.5851,-3.5859,-3.5923,-3.5967,-3.5882,-3.5886,-3.6091,-3.6096,-3.61,-3.6168,0,0,0,0,0,0,-3.5709,-3.5724,-3.5758,-3.5776,-3.579,-3.5882,-3.5823,-3.5822,-3.5844,-3.5838,-3.5858,-3.5858,-3.5849,-3.5916,-3.5927,-3.5971,-3.5889,-3.6087,-3.6093,-3.6099,-3.6162,-3.6174,-3.6185,0,0,0,0,0,-3.5704,-3.5775,-3.576,-3.5772,-3.5832,-3.5885,-3.5892,-3.5881,-3.5848,-3.588,-3.5884,-3.5857,-3.596,-3.5923,-3.5935,-3.5981,-3.6084,-3.6091,-3.6098,-3.6156,-3.6172,-3.6185,0,0,0,0,0,0,-3.576,-3.5777,-3.5761,-3.584,-3.5861,-3.5876,-3.5918,-3.5898,-3.5928,-3.5922,-3.5906,-3.591,-3.5978,-3.5986,-3.5945,-3.6064,-3.6017,-3.6026,-3.6057,-3.6071,-3.6083,-3.6079,-3.5893,0,0,0,0,0,-3.5782,-3.5825,-3.5836,-3.5905,-3.5916,-3.5915,-3.5938,-3.5928,-3.5949,-3.5957,-3.5966,-3.5986,-3.6023,-3.6047,-3.6082,-3.6162,-3.6165,-3.62,-3.6211,-3.6221,-3.6229,-3.6271,-3.6286,-3.6125,-3.6125,-3.6124,0,0,-3.5827,-3.5841,-3.5869,-3.5916,-3.5932,-3.5975,-3.5923,-3.5971,-3.6003,-3.5964,-3.6025,-3.6032,-3.6054,-3.6126,-3.6159,-3.6135,-3.6274,-3.623,-3.6237,-3.6241,-3.628,-3.6295,-3.6309,-3.6129,-3.6129,-3.6128,0,0,-3.5931,-3.5947,-3.6005,-3.6022,-3.6046,-3.6045,-3.6059,-3.6077,-3.608,-3.6141,-3.6113,-3.6149,-3.6213,-3.6229,-3.6246,-3.6355,-3.6331,-3.6367,-3.6427,-3.6468,-3.6481,-3.6492,-3.653,-3.6544,-3.6375,-3.6375,-3.6375,0,-3.5983,-3.6049,-3.6037,-3.6087,-3.6108,-3.6076,-3.6134,-3.615,-3.6184,-3.6199,-3.6172,-3.6251,-3.6263,-3.6338,-3.6365,-3.638,-3.6394,-3.6364,-3.648,-3.6492,-3.6502,-3.6538,-3.6552,-3.6379,-3.6379,-3.6378,-3.6378,0,-3.6112,-3.6157,-3.6201,-3.6236,-3.6261,-3.6315,-3.631,-3.6337,-3.6324,-3.6325,-3.6387,-3.6401,-3.6437,-3.6454,-3.6442,-3.6527,-3.6512,-3.6483,-3.6435,-3.6522,-3.6555,-3.6569,-3.6385,-3.6384,-3.6383,-3.6382,0,0,-3.6253,-3.628,-3.6296,-3.6311,-3.6335,-3.6369,-3.6421,-3.6457,-3.648,-3.6504,-3.6546,-3.66,-3.6574,-3.6593,-3.6582,-3.6618,-3.6702,-3.6585,-3.6585,-3.6606,-3.6796,-3.6817,-3.6834,-3.6687,-3.6689,-3.6691,-3.6794,0,-3.6357,-3.6448,-3.6438,-3.6524,-3.6565,-3.6535,-3.658,-3.6598,-3.66,-3.6634,-3.6635,-3.6674,-3.6637,-3.6648,-3.6682,-3.6685,-3.674,-3.6677,-3.6724,-3.6726,-3.672,-3.6851,-3.6874,-3.697,-3.6807,-3.6809,-3.6811,0,-3.6491,-3.6521,-3.6612,-3.6628,-3.6645,-3.6686,-3.6717,-3.6751,-3.677,-3.6769,-3.679,-3.6773,-3.6822,-3.6774,-3.6841,-3.6799,-3.6817,-3.6821,-3.6824,-3.6828,-3.6774,-3.6858,-3.7001,-3.7015,-3.6832,-3.683,-3.6828,0,-3.6584,-3.6647,-3.6709,-3.6722,-3.6744,-3.6773,-3.6783,-3.68,-3.6822,-3.6849,-3.6863,-3.6895,-3.6913,-3.6937,-3.6928,-3.6894,-3.6998,-3.6948,-3.6997,-3.6997,-3.702,-3.7019,-3.7167,-3.7033,-3.7032,-3.7032,-3.7032,0,-3.6702,-3.6758,-3.6751,-3.6789,-3.685,-3.6838,-3.6899,-3.6904,-3.692,-3.6957,-3.6932,-3.6968,-3.6954,-3.6988,-3.6981,-3.7038,-3.7046,-3.7045,-3.7043,-3.7047,-3.7047,-3.7059,-3.7052,-3.7036,-3.7035,-3.7034,-3.7034,0,-3.6816,-3.6814,-3.6879,-3.6894,-3.6899,-3.6944,-3.6956,-3.6991,-3.699,-3.7038,-3.7048,-3.7048,-3.7086,-3.708,-3.7122,-3.7118,-3.7188,-3.7177,-3.7182,-3.7179,-3.7228,-3.7223,-3.7389,-3.741,-3.7262,-3.7264,-3.7265,0,-3.6891,-3.6934,-3.6953,-3.6977,-3.699,-3.7028,-3.7051,-3.7039,-3.7063,-3.7089,-3.712,-3.7157,-3.7185,-3.7248,-3.7251,-3.7283,-3.7272,-3.7328,-3.7277,-3.728,-3.7272,-3.727,-3.7274,-3.7338,-3.734,-3.7341,-3.7343,0,-3.7024,-3.7021,-3.7055,-3.7088,-3.7116,-3.7141,-3.7164,-3.7184,-3.7175,-3.7203,-3.7242,-3.7265,-3.7308,-3.7345,-3.7374,-3.7383,-3.7361,-3.7359,-3.7371,-3.7377,-3.7377,-3.7377,-3.7209,-3.7355,-3.7354,-3.7353,-3.7352,-3.7352,-3.7121,-3.7157,-3.7176,-3.7214,-3.723,-3.7252,-3.7285,-3.7289,-3.7323,-3.7358,-3.7349,-3.7394,-3.7411,-3.7449,-3.746,-3.7494,-3.7473,-3.7492,-3.7497,-3.7502,-3.7507,-3.7372,-3.75,-3.7499,-3.7499,-3.7499,-3.7498,0,-3.7252,-3.7262,-3.7298,-3.7331,-3.736,-3.7338,-3.7362,-3.7388,-3.7428,-3.7446,-3.7475,-3.752,-3.7555,-3.756,-3.7592,-3.7618,-3.7609,-3.7627,-3.7625,-3.7627,-3.7524,-3.751,-3.7634,-3.7634,-3.7634,-3.7634,-3.7634,-3.7634,-3.7323,-3.7383,-3.7382,-3.7448,-3.7458,-3.7503,-3.7518,-3.7537,-3.7552,-3.7604,-3.7633,-3.7636,-3.7649,-3.7682,-3.7712,-3.7712,-3.7725,-3.7747,-3.7744,-3.7648,-3.7634,-3.7621,-3.7607,-3.775,-3.775,-3.7843,-3.7844,-3.7845]}]]